Вернуться в каталог

STARLINK-3245

АктивенСвязьVLEO
NORAD 50170·PAYLOAD·🇺🇸 United States

Запущен Dec 18, 2021 с Vandenberg Space Force Base

Loading…

Ближайшие Пролёты (ближайшие 24 часа)

TLE

СвежийSource: CelesTrak SupGP

Эпоха: Sep 14, 2026, 20:10 UTC

1 50170C 21125Q   26257.84076389 -.00021725  00000+0 -69867-3 0  2575
2 50170  53.1566 108.1496 0001229  89.1084  35.0404 15.31709686    17

Отслеживайте STARLINK-3245 в реальном времени с AllMySat

Download on the App Store